CW1138 Weather Reports


Display with metric or nautical units.
time (UTC)temp
F
wind
direction
speed
MPH
gust
MPH
rain 1hr
in
rain 24hr
in
rain mn
in
humidity
%
barometer
mb
20180522171553 75 37 3.0 4.0 0.00 0.00 0.00 45 1012.9
20180522171052 75 72 3.0 4.0 0.00 0.00 0.00 44 1012.9
20180522170552 74 58 2.0 3.0 0.00 0.00 0.00 45 1012.9
20180522170052 74 51 3.0 3.0 0.00 0.00 0.00 45 1013.1
20180522165552 74 58 0.0 0.0 0.00 0.00 0.00 48 1013.1
20180522165052 73 54 6.0 6.0 0.00 0.00 0.00 48 1013.1
20180522164552 73 58 3.0 4.0 0.00 0.00 0.00 51 1013.2
20180522164052 72 41 2.0 3.0 0.00 0.00 0.00 52 1013.2
20180522162552 71 47 2.0 3.0 0.00 0.00 0.00 52 1013.3
20180522162052 71 55 3.0 3.0 0.00 0.00 0.00 52 1013.3
20180522161552 71 40 2.0 3.0 0.00 0.00 0.00 54 1013.4
20180522161052 70 62 3.0 3.0 0.00 0.00 0.00 56 1013.4
20180522154551 68 40 3.0 4.0 0.00 0.00 0.00 59 1013.6
20180522154051 67 44 3.0 4.0 0.00 0.00 0.00 61 1013.6
20180522153551 67 51 3.0 4.0 0.00 0.00 0.00 61 1013.6
20180522152051 66 34 3.0 4.0 0.00 0.00 0.00 64 1013.6
20180522150051 64 51 2.0 3.0 0.00 0.00 0.00 69 1013.5
20180522145050 63 34 0.0 2.0 0.00 0.00 0.00 71 1013.5
20180522144550 62 31 4.0 6.0 0.00 0.00 0.00 73 1013.5
20180522144050 62 51 4.0 4.0 0.00 0.00 0.00 74 1013.5
20180522143050 61 48 3.0 3.0 0.00 0.00 0.00 78 1013.4
20180522142550 60 27 2.0 4.0 0.00 0.00 0.00 80 1013.4
20180522142050 59 48 4.0 4.0 0.00 0.00 0.00 81 1013.4
20180522141050 59 37 3.0 3.0 0.00 0.00 0.00 83 1013.5
20180522140550 58 48 2.0 2.0 0.00 0.00 0.00 84 1013.5
20180522140050 58 40 2.0 3.0 0.00 0.00 0.00 84 1013.4
20180522135550 58 55 3.0 4.0 0.00 0.00 0.00 84 1013.4
20180522135049 58 31 4.0 4.0 0.00 0.00 0.00 84 1013.4
20180522134549 58 37 0.0 0.0 0.00 0.00 0.00 85 1013.4
20180522133049 57 40 3.0 3.0 0.00 0.00 0.00 87 1013.4
20180522132549 57 40 3.0 3.0 0.00 0.00 0.00 88 1013.4
20180522131049 56 44 4.0 4.0 0.00 0.00 0.00 90 1013.3
20180522130549 55 34 4.0 4.0 0.00 0.00 0.00 91 1013.3
20180522130049 55 44 3.0 3.0 0.00 0.00 0.00 92 1013.3
20180522125548 54 44 1.0 2.0 0.00 0.00 0.00 92 1013.3
20180522123548 54 55 1.0 2.0 0.00 0.00 0.00 92 1013.3
20180522122548 53 51 0.0 0.0 0.00 0.00 0.00 92 1013.2
20180522121048 53 48 0.0 0.0 0.00 0.00 0.00 92 1013.2
20180522120048 54 48 0.0 0.0 0.00 0.00 0.00 92 1013.2
20180522115548 54 48 0.0 0.0 0.00 0.00 0.00 92 1013.2
20180522114047 54 48 0.0 0.0 0.00 0.00 0.00 92 1013.2
20180522113048 54 48 0.0 0.0 0.00 0.00 0.00 92 1013.2
20180522112547 54 48 0.0 0.0 0.00 0.00 0.00 92 1013.2
20180522111547 54 48 0.0 0.0 0.00 0.00 0.00 92 1013.1
20180522110047 54 48 0.0 0.0 0.00 0.00 0.00 92 1013.0
20180522105547 53 34 0.0 0.0 0.00 0.00 0.00 92 1013.0
20180522105047 53 260 0.0 0.0 0.00 0.00 0.00 92 1013.0
20180522104546 53 260 0.0 0.0 0.00 0.00 0.00 91 1012.9
20180522103546 54 260 0.0 0.0 0.00 0.00 0.00 91 1012.9
20180522102546 54 260 0.0 0.0 0.00 0.00 0.00 91 1012.8
20180522102046 54 260 0.0 0.0 0.00 0.00 0.00 91 1012.8
20180522101546 54 260 0.0 0.0 0.00 0.00 0.00 91 1012.9
20180522101046 54 260 0.0 0.0 0.00 0.00 0.00 91 1012.9
20180522100546 54 260 0.0 0.0 0.00 0.00 0.00 91 1012.9
20180522094046 53 260 0.0 0.0 0.00 0.00 0.00 91 1012.8
20180522093546 54 260 0.0 0.0 0.00 0.00 0.00 90 1012.8
20180522093045 54 260 0.0 0.0 0.00 0.00 0.00 90 1012.8
20180522092545 54 260 0.0 0.0 0.00 0.00 0.00 90 1012.8
20180522092045 54 260 0.0 0.0 0.00 0.00 0.00 90 1012.8
20180522090545 54 260 0.0 0.0 0.00 0.00 0.00 90 1012.7
20180522085545 55 260 0.0 0.0 0.00 0.00 0.00 90 1012.7
20180522082544 55 260 0.0 0.0 0.00 0.00 0.00 89 1012.7
20180522082044 56 260 0.0 0.0 0.00 0.00 0.00 88 1012.7
20180522081044 56 260 0.0 0.0 0.00 0.00 0.00 88 1012.7
20180522080544 56 260 0.0 0.0 0.00 0.00 0.00 88 1012.7
20180522075544 57 260 0.0 0.0 0.00 0.00 0.00 88 1012.7
20180522075044 57 260 0.0 0.0 0.00 0.00 0.00 88 1012.7
20180522074544 57 260 0.0 0.0 0.00 0.00 0.00 88 1012.8
20180522074044 57 260 0.0 0.0 0.00 0.00 0.00 88 1012.8
20180522073043 56 260 0.0 0.0 0.00 0.00 0.00 88 1012.8
20180522072043 56 260 0.0 0.0 0.00 0.00 0.00 87 1012.8
20180522070543 56 260 0.0 0.0 0.00 0.00 0.00 86 1012.8
20180522070043 57 260 0.0 0.0 0.00 0.00 0.00 86 1012.6
20180522064543 57 260 0.0 0.0 0.00 0.00 0.00 84 1012.7
20180522064043 57 260 0.0 0.0 0.00 0.00 0.00 84 1012.7
20180522063543 57 260 0.0 0.0 0.00 0.00 0.00 84 1012.7
20180522062543 58 260 0.0 0.0 0.00 0.00 0.00 83 1012.6
20180522062043 58 260 0.0 0.0 0.00 0.00 0.00 83 1012.6
20180522055542 59 260 0.0 0.0 0.00 0.00 0.00 80 1012.6
20180522054542 59 260 0.0 0.0 0.00 0.00 0.00 80 1012.6
20180522054042 60 260 0.0 0.0 0.00 0.00 0.00 79 1012.6
20180522053042 60 260 0.0 0.0 0.00 0.00 0.00 77 1012.4
20180522052041 60 260 0.0 0.0 0.00 0.00 0.00 76 1012.4
20180522050541 62 260 0.0 0.0 0.00 0.00 0.00 75 1012.4
20180522050041 62 260 0.0 0.0 0.00 0.00 0.00 74 1012.4
20180522045041 62 260 0.0 0.0 0.00 0.00 0.00 74 1012.4
20180522044541 63 260 0.0 0.0 0.00 0.00 0.00 72 1012.2
20180522044041 63 260 0.0 0.0 0.00 0.00 0.00 72 1012.2
20180522043541 63 260 0.0 0.0 0.00 0.00 0.00 71 1012.2
20180522042041 65 260 0.0 0.0 0.00 0.00 0.00 68 1012.1
20180522041541 65 260 0.0 0.0 0.00 0.00 0.00 68 1012.0
20180522041041 66 260 0.0 0.0 0.00 0.00 0.00 67 1012.0
20180522040541 66 260 0.0 0.0 0.00 0.00 0.00 67 1012.0
20180522040041 67 260 0.0 0.0 0.00 0.00 0.00 65 1011.9
20180522035541 67 260 0.0 0.0 0.00 0.00 0.00 64 1011.9
20180522034540 68 260 0.0 0.0 0.00 0.00 0.00 63 1011.7
20180522033540 69 260 0.0 0.0 0.00 0.00 0.00 59 1011.7
20180522033040 70 260 0.0 0.0 0.00 0.00 0.00 59 1011.6
20180522032540 70 260 0.0 0.0 0.00 0.00 0.00 58 1011.6
20180522032040 71 260 0.0 0.0 0.00 0.00 0.00 57 1011.6
20180522030540 72 260 0.0 0.0 0.00 0.00 0.00 50 1011.4
20180522025539 73 260 0.0 0.0 0.00 0.00 0.00 48 1011.4
20180522023539 75 260 0.0 0.0 0.00 0.00 0.00 46 1011.3
20180522022539 76 260 0.0 0.0 0.00 0.00 0.00 45 1011.3
20180522022039 76 260 0.0 0.0 0.00 0.00 0.00 44 1011.3
20180522021539 77 260 0.0 0.0 0.00 0.00 0.00 43 1011.3
20180522020539 78 260 0.0 0.0 0.00 0.00 0.00 41 1011.3
20180522020039 78 260 0.0 0.0 0.00 0.00 0.00 41 1011.2
20180522014039 79 258 0.0 0.0 0.00 0.00 0.00 37 1011.3
20180522012538 81 340 0.0 0.0 0.00 0.00 0.00 35 1011.3
20180522012038 81 340 0.0 0.0 0.00 0.00 0.00 35 1011.3
20180522010538 82 323 0.0 0.0 0.00 0.00 0.00 33 1011.4
20180522005538 83 304 0.0 0.0 0.00 0.00 0.00 33 1011.5
20180522003537 82 304 0.0 0.0 0.00 0.00 0.00 32 1011.5
20180522003037 83 304 0.0 0.0 0.00 0.00 0.00 32 1011.6
20180522002537 83 304 0.0 0.0 0.00 0.00 0.00 32 1011.6
20180522001037 82 302 0.0 0.0 0.00 0.00 0.00 32 1011.6
20180522000537 83 320 0.0 0.0 0.00 0.00 0.00 33 1011.6
20180522000037 83 294 0.0 0.0 0.00 0.00 0.00 34 1011.6
20180521235037 83 315 3.0 3.0 0.00 0.00 0.00 33 1011.6
20180521234536 83 216 0.0 0.0 0.00 0.00 0.00 29 1011.7
20180521234036 83 304 0.0 0.0 0.00 0.00 0.00 31 1011.7
20180521233536 83 271 0.0 1.0 0.00 0.00 0.00 31 1011.7
20180521232536 82 155 0.0 0.0 0.00 0.00 0.00 35 1011.7
20180521232036 82 155 0.0 0.0 0.00 0.00 0.00 34 1011.7
20180521231036 82 150 0.0 0.0 0.00 0.00 0.00 35 1011.9
20180521230536 82 150 0.0 0.0 0.00 0.00 0.00 35 1011.9
20180521230036 82 161 2.0 2.0 0.00 0.00 0.00 35 1012.0
20180521225535 82 198 0.0 0.0 0.00 0.00 0.00 35 1012.0
20180521225036 82 282 1.0 1.0 0.00 0.00 0.00 37 1012.0
20180521223535 81 202 0.0 1.0 0.00 0.00 0.00 36 1012.0
20180521222535 80 151 0.0 1.0 0.00 0.00 0.00 35 1012.1
20180521222035 80 168 0.0 1.0 0.00 0.00 0.00 44 1012.1
20180521221035 78 168 0.0 0.0 0.00 0.00 0.00 42 1012.2
20180521220035 77 236 0.0 0.0 0.00 0.00 0.00 45 1012.3
20180521215535 77 236 0.0 0.0 0.00 0.00 0.00 43 1012.3
20180521214534 78 234 0.0 0.0 0.00 0.00 0.00 44 1012.3
20180521213034 80 230 0.0 0.0 0.00 0.00 0.00 40 1012.3
20180521212534 80 202 0.0 2.0 0.00 0.00 0.00 41 1012.3
20180521212034 79 198 0.0 1.0 0.00 0.00 0.00 45 1012.3
20180521211534 79 195 0.0 0.0 0.00 0.00 0.00 41 1012.4
20180521211034 79 223 0.0 1.0 0.00 0.00 0.00 45 1012.4
20180521210534 79 151 1.0 1.0 0.00 0.00 0.00 42 1012.4
20180521210034 79 277 2.0 2.0 0.00 0.00 0.00 43 1012.6
20180521205534 79 181 2.0 3.0 0.00 0.00 0.00 45 1012.6
20180521204034 78 185 0.0 2.0 0.00 0.00 0.00 45 1012.7
20180521202533 77 224 0.0 2.0 0.00 0.00 0.00 46 1012.8
20180521201533 78 246 0.0 0.0 0.00 0.00 0.00 47 1012.9
20180521194533 77 158 0.0 0.0 0.00 0.00 0.00 50 1013.1
20180521194033 77 251 0.0 0.0 0.00 0.00 0.00 50 1013.1
20180521191032 75 243 0.0 1.0 0.00 0.00 0.00 48 1013.4
20180521185532 75 222 0.0 0.0 0.00 0.00 0.00 47 1013.4
20180521185032 75 222 0.0 3.0 0.00 0.00 0.00 46 1013.4
20180521184532 75 254 0.0 0.0 0.00 0.00 0.00 47 1013.5
20180521183532 75 346 1.0 2.0 0.00 0.00 0.00 49 1013.5
20180521183031 75 210 0.0 0.0 0.00 0.00 0.00 48 1013.5
20180521182532 74 256 0.0 0.0 0.00 0.00 0.00 53 1013.5
20180521182031 74 174 0.0 0.0 0.00 0.00 0.00 49 1013.5
20180521181031 74 216 1.0 3.0 0.00 0.00 0.00 50 1013.4
20180521180531 74 175 0.0 0.0 0.00 0.00 0.00 52 1013.4
20180521175531 73 130 0.0 0.0 0.00 0.00 0.00 54 1013.5
20180521175031 73 209 0.0 0.0 0.00 0.00 0.00 54 1013.5
20180521174531 73 202 0.0 0.0 0.00 0.00 0.00 54 1013.5
20180521173530 73 248 0.0 0.0 0.00 0.00 0.00 55 1013.5
20180521172531 72 325 0.0 0.0 0.00 0.00 0.00 56 1013.4